Snowfall_Accumulation
0.0 0.0 0.0 0.0 0.0 0.0 0.0 0.0 0.0 0.0 0.0 0.0 0.0 0.0 0.0 0.0 0.0 0.0 0.0 0.0 0.0 0.0 0.0 0.0 0.0 0.0 0.0 0.0 0.0 0.0 0.0 0.0 0.1 0.0 0.0 0.0 0.0 0.0 0.0 0.0 0.0 0.0 0.0
0.0 0.0 0.0 0.0 0.0 0.0 0.0 0.0 0.0 0.0 0.0 0.0 0.0 0.0 0.0 0.0 0.0 0.0 0.0 0.0 0.0 0.0 0.0 0.0 0.0 0.0 0.0 0.0 0.0 0.0 0.0 0.0 0.0 0.0 0.0 0.0 0.0 0.0 0.0 0.0 0.0 0.0 0.2
0.0 0.0 0.0 0.0 0.0 0.0 0.0 0.0 0.0 0.0 0.0 0.0 0.0 0.0 0.0 0.0 0.0 0.0 0.0 0.0 0.0 0.0 0.0 0.0 0.0 0.0 0.0 0.1 0.0 0.0 0.0 0.0 0.0 0.3 0.4 0.3 0.3 0.3 0.4 0.2 0.1 0.1 0.0
0.0 0.0 0.0 0.0 0.0 0.0 0.0 0.0 0.0 0.0 0.0 0.0 0.0 0.0 0.0 0.0 0.0 0.0 0.0 0.0 0.0 0.0 0.0 0.0 0.0 0.0 0.0 0.0 0.0 0.0 0.0 0.3 0.4 0.5 0.6 0.5 0.5 0.6 0.6 0.8 1.1 0.7 0.9
0.0 0.0 0.0 0.0 0.0 0.0 0.0 0.0 0.0 0.0 0.0 0.0 0.0 0.0 0.0 0.0 0.0 0.0 0.0 0.0 0.0 0.0 0.0 0.0 0.0 0.0 nan nan 0.2 0.2 0.1 0.4 1.0 1.3 0.9 0.8 0.8 1.0 1.0 0.8 1.9 1.3 1.2
0.0 0.0 0.0 0.0 0.1 0.1 0.1 0.1 0.1 0.1 0.1 0.1 0.1 0.1 0.1 0.0 nan nan 0.0 0.0 0.1 0.1 0.1 0.1 0.1 0.1 0.1 nan nan nan nan 0.2 3.2 3.5 1.0 0.9 0.3 0.9 1.3 1.8 2.5 3.4 3.9
0.1 0.1 0.1 0.1 0.1 0.1 0.1 0.1 0.1 0.1 0.1 0.1 0.1 0.1 0.2 0.1 nan nan nan 0.1 0.1 0.1 0.1 0.1 0.1 0.1 0.2 0.1 nan nan nan nan nan 0.1 0.7 0.7 1.6 1.1 2.0 3.1 2.1 3.0 3.0
0.1 0.2 0.2 0.2 0.4 0.2 0.2 0.3 0.2 0.1 0.2 0.2 0.2 0.2 0.2 0.1 nan nan nan 0.1 0.1 0.1 0.1 0.1 0.2 0.2 0.2 0.3 0.3 0.5 0.3 0.3 0.2 0.2 0.5 0.7 0.8 1.0 1.1 1.2 2.7 4.5 3.6
0.1 0.1 0.2 0.3 0.7 0.4 1.3 0.4 0.3 0.7 0.5 0.9 0.6 1.6 1.1 0.8 nan nan 0.1 0.3 0.3 0.3 0.1 0.2 0.3 0.4 nan nan 1.1 3.1 2.2 1.5 nan nan nan nan nan nan nan 6.8 17.7 20.7 11.8
0.1 0.1 0.1 0.3 1.3 1.1 0.4 0.9 1.1 1.2 1.3 2.1 1.7 1.4 0.6 2.4 nan nan nan 2.2 3.4 2.3 1.0 0.4 1.0 0.4 nan nan 1.8 4.0 7.5 3.6 3.2 3.9 2.1 0.9 nan nan nan 3.0 7.4 19.6 11.9
0.4 0.4 0.6 0.5 1.8 0.7 1.0 0.8 1.8 2.7 1.8 3.1 3.1 2.2 2.6 1.4 1.1 nan nan 1.4 3.2 4.7 4.5 3.1 1.7 nan nan nan nan 4.0 4.9 3.3 6.3 5.6 5.1 4.9 4.3 4.0 3.6 3.2 2.6 4.4 9.0
1.0 1.2 1.6 2.8 2.1 2.0 5.2 3.1 4.5 4.2 4.8 4.5 4.8 3.8 3.1 1.7 nan nan nan nan nan 7.0 4.2 2.1 2.0 nan nan nan 2.3 nan nan 3.0 8.8 9.8 8.7 7.3 5.3 4.9 4.1 4.6 3.5 3.6 3.5
3.7 5.6 5.2 4.3 4.4 4.3 6.4 4.9 5.8 4.9 6.0 4.2 5.8 5.6 4.4 3.9 3.7 nan nan nan nan 3.6 2.5 2.1 nan nan nan nan nan nan 2.3 7.1 9.9 12.6 9.8 6.7 4.2 3.8 3.9 4.5 3.9 3.9 3.7
7.1 4.0 3.1 4.4 2.8 3.6 4.4 4.8 7.8 6.6 5.9 6.8 8.4 8.2 5.7 5.5 3.5 3.1 5.1 3.1 2.3 4.3 nan 3.6 nan 2.8 nan nan 3.7 3.6 5.6 6.3 6.9 8.1 8.1 5.5 5.1 6.4 6.7 4.9 6.9 6.1 9.6
5.0 3.1 3.1 4.5 5.1 3.4 3.3 5.2 4.8 3.0 6.5 12.5 14.4 11.2 13.2 12.3 7.8 3.4 8.6 9.0 7.8 7.9 7.5 12.0 10.0 6.9 7.0 6.1 7.8 7.4 6.9 7.6 8.9 9.1 9.8 9.1 8.5 7.9 7.6 6.1 6.5 8.3 10.7
3.1 4.7 4.3 4.2 3.6 3.3 3.5 3.9 nan nan nan nan nan 7.5 8.9 nan nan nan nan nan nan nan 18.0 20.8 11.8 9.3 7.4 7.5 9.4 9.5 8.5 7.7 8.6 9.6 10.4 10.3 10.6 8.8 9.0 9.6 9.3 10.2 11.0
5.9 4.0 4.9 4.1 4.4 5.0 5.3 6.2 8.0 6.0 nan nan nan nan nan nan nan nan nan nan nan nan 30.6 17.6 14.9 10.7 10.2 8.6 10.1 9.5 9.5 8.0 6.2 8.9 8.6 9.3 10.2 10.7 10.5 9.8 8.9 8.4 12.0
6.3 2.1 6.0 5.9 5.7 6.2 6.9 7.3 7.6 9.7 11.7 9.8 nan nan nan nan nan nan nan nan 26.7 nan 23.9 24.0 21.1 17.5 14.2 13.1 11.2 10.8 11.0 10.3 9.4 10.3 10.6 13.8 15.2 15.8 14.4 13.9 10.6 13.2 12.8
6.4 5.1 5.9 5.8 5.7 6.1 7.0 6.6 7.4 7.7 8.0 10.1 10.5 11.0 5.5 nan nan nan nan 19.1 24.3 22.3 22.4 23.1 20.0 18.6 15.2 16.0 15.1 16.7 14.7 15.0 14.2 18.4 18.5 19.5 17.5 18.0 17.6 12.9 10.3 6.4 7.4
7.3 3.4 5.5 8.8 8.3 7.7 5.9 7.5 7.4 8.0 9.1 10.3 10.6 9.4 15.6 15.7 22.0 22.8 19.5 25.5 25.7 23.4 21.0 22.9 23.3 24.7 24.9 23.2 22.6 21.0 21.1 22.0 20.3 21.1 20.9 19.7 18.2 18.9 13.2 17.3 15.0 12.7 13.9
14.1 11.9 2.7 10.5 12.7 12.9 13.3 11.3 9.4 12.5 11.1 12.4 9.7 9.1 nan 16.6 17.8 19.3 22.3 21.0 24.0 25.6 21.7 23.5 24.7 30.0 30.5 32.7 27.8 26.8 25.4 16.7 20.6 22.5 23.6 23.6 22.7 27.0 16.8 11.3 15.7 16.6 16.2
15.4 15.8 15.8 17.0 12.5 13.1 14.8 10.7 11.7 11.9 11.4 10.4 8.6 8.9 nan 11.3 13.9 14.5 16.1 20.5 24.8 25.6 28.6 32.8 32.1 34.2 30.4 27.9 25.7 23.7 20.3 23.7 25.4 24.4 20.6 21.6 24.6 21.4 20.3 14.2 14.7 12.8 16.4
14.1 12.8 13.4 13.4 13.0 6.6 14.5 16.5 15.1 14.5 13.5 14.5 12.7 13.4 15.3 18.1 16.2 16.0 22.5 25.4 20.7 19.6 22.0 23.0 21.5 21.3 19.5 22.2 19.7 19.1 20.7 23.4 24.4 30.4 22.3 23.1 22.7 25.3 22.2 19.4 17.0 18.2 16.9
13.3 13.4 13.1 16.7 15.2 12.9 15.1 16.3 14.7 6.4 15.3 16.3 24.7 20.2 13.0 16.8 23.2 17.3 18.1 21.6 18.3 28.8 21.3 22.4 18.7 17.9 19.1 27.8 34.0 33.4 35.5 36.9 35.9 33.3 30.5 22.3 22.4 18.5 19.1 20.7 16.3 14.7 12.9
16.2 14.2 14.4 13.4 19.8 16.9 16.2 19.4 15.0 19.6 22.2 18.2 21.3 16.6 17.2 16.0 16.5 22.5 21.0 17.6 19.3 17.9 15.6 15.3 15.9 16.1 16.1 17.0 23.3 28.9 28.3 4.4 19.2 4.8 27.5 20.4 24.3 25.0 24.0 19.8 18.2 15.3 12.7
13.7 14.9 15.6 16.5 16.2 17.4 18.0 18.0 18.8 15.8 19.6 20.4 19.1 19.1 16.6 16.4 16.3 18.8 17.7 17.8 14.7 15.0 15.4 16.8 16.7 14.6 13.6 15.2 16.1 6.8 4.1 3.6 23.0 4.0 22.6 19.0 22.1 21.4 21.3 21.3 19.7 17.8 14.4
Water_Equivalent
0.00 0.00 0.00 0.00 0.00 0.00 0.00 0.00 0.00 0.00 0.00 0.00 0.00 0.00 0.00 0.00 0.00 0.00 0.00 0.00 0.00 0.00 0.00 0.00 0.00 0.00 0.00 0.00 0.00 0.00 0.00 0.00 0.05 0.00 0.00 0.00 0.00 0.00 0.00 0.00 0.00 0.00 0.00
0.00 0.00 0.00 0.00 0.00 0.00 0.00 0.00 0.00 0.00 0.00 0.00 0.00 0.00 0.00 0.00 0.00 0.00 0.00 0.00 0.00 0.00 0.00 0.00 0.00 0.00 0.00 0.00 0.00 0.00 0.00 0.00 0.02 0.01 0.00 0.00 0.00 0.00 0.00 0.01 0.00 0.00 0.07
0.00 0.00 0.00 0.00 0.00 0.00 0.00 0.00 0.00 0.00 0.00 0.00 0.00 0.00 0.00 0.00 0.00 0.00 0.00 0.00 0.00 0.00 0.00 0.00 0.00 0.01 0.01 0.03 0.00 0.00 0.01 0.01 0.00 0.09 0.09 0.08 0.09 0.09 0.11 0.05 0.02 0.03 0.00
0.00 0.00 0.00 0.00 0.00 0.00 0.00 0.00 0.00 0.00 0.00 0.00 0.00 0.00 0.00 0.00 0.00 0.00 0.00 0.00 0.00 0.00 0.00 0.00 0.00 0.00 0.01 0.01 0.01 0.02 0.02 0.11 0.12 0.16 0.16 0.13 0.13 0.15 0.17 0.18 0.22 0.16 0.21
0.00 0.00 0.00 0.00 0.00 0.00 0.00 0.01 0.01 0.01 0.00 0.00 0.00 0.01 0.00 0.00 0.00 0.00 0.01 0.01 0.01 0.01 0.01 0.02 0.01 0.00 nan nan 0.07 0.05 0.04 0.11 0.28 0.33 0.23 0.18 0.17 0.18 0.18 0.17 0.38 0.29 0.23
0.00 0.00 0.00 0.01 0.02 0.03 0.03 0.03 0.02 0.02 0.02 0.02 0.02 0.02 0.02 0.00 nan nan 0.01 0.01 0.02 0.02 0.02 0.02 0.02 0.02 0.02 nan nan nan nan 0.07 0.70 0.78 0.24 0.17 0.06 0.20 0.26 0.33 0.46 0.53 0.51
0.02 0.03 0.03 0.03 0.03 0.03 0.03 0.03 0.03 0.03 0.02 0.03 0.03 0.03 0.03 0.03 nan nan nan 0.04 0.03 0.02 0.02 0.03 0.03 0.03 0.05 0.03 nan nan nan nan nan 0.04 0.15 0.16 0.30 0.23 0.40 0.50 0.33 0.47 0.51
0.03 0.05 0.05 0.03 0.07 0.04 0.04 0.05 0.04 0.03 0.04 0.03 0.04 0.04 0.03 0.03 nan nan nan 0.02 0.02 0.03 0.03 0.04 0.05 0.06 0.06 0.08 0.08 0.12 0.08 0.08 0.06 0.06 0.13 0.17 0.20 0.22 0.25 0.25 0.48 0.74 0.61
0.02 0.03 0.03 0.05 0.12 0.07 0.21 0.07 0.05 0.11 0.09 0.14 0.11 0.26 0.19 0.16 nan nan 0.04 0.07 0.06 0.07 0.04 0.05 0.07 0.08 nan nan 0.23 0.53 0.40 0.30 nan nan nan nan nan nan nan 1.40 2.63 2.87 1.60
0.02 0.02 0.03 0.05 0.21 0.17 0.07 0.14 0.19 0.20 0.20 0.35 0.26 0.24 0.14 0.39 nan nan nan 0.55 0.63 0.44 0.19 0.10 0.31 0.10 nan nan 0.39 0.70 1.07 0.60 0.64 0.82 0.44 0.21 nan nan nan 0.55 1.23 2.59 1.55
0.07 0.07 0.09 0.08 0.27 0.12 0.16 0.14 0.30 0.40 0.26 0.47 0.46 0.35 0.42 0.27 0.20 nan nan 0.31 0.61 0.86 0.83 0.57 0.35 nan nan nan nan 0.76 0.86 0.67 1.20 1.02 0.92 0.90 0.81 0.74 0.68 0.57 0.43 0.72 1.30
0.16 0.16 0.22 0.40 0.32 0.31 0.76 0.48 0.69 0.63 0.67 0.60 0.64 0.56 0.50 0.27 nan nan nan nan nan 1.35 0.74 0.39 0.38 nan nan nan 0.64 nan nan 0.78 1.70 1.67 1.41 1.12 0.82 0.77 0.68 0.67 0.47 0.47 0.48
0.47 0.70 0.68 0.60 0.61 0.62 0.91 0.63 0.89 0.73 0.85 0.53 0.76 0.74 0.59 0.58 0.62 nan nan nan nan 0.73 0.51 0.39 nan nan nan nan nan nan 0.76 1.33 1.61 1.74 1.22 0.84 0.59 0.54 0.49 0.56 0.46 0.44 0.40
0.96 0.50 0.38 0.54 0.42 0.50 0.67 0.78 1.17 0.95 0.81 0.92 1.09 1.04 0.72 0.68 0.50 0.52 0.97 0.70 0.59 0.85 nan 0.71 nan 0.56 nan nan 0.76 0.67 0.91 0.98 0.99 1.09 0.98 0.68 0.66 0.78 0.80 0.60 0.81 0.73 1.19
0.62 0.34 0.42 0.64 0.74 0.46 0.44 0.74 0.64 0.43 0.93 1.64 1.98 1.42 1.50 1.39 0.98 0.54 1.40 1.55 1.46 1.43 1.38 1.77 1.42 0.96 0.94 0.83 1.05 0.99 0.97 1.06 1.18 1.20 1.15 1.06 0.99 0.94 0.90 0.71 0.75 0.99 1.26
0.35 0.56 0.56 0.57 0.49 0.43 0.44 0.48 nan nan nan nan nan 1.20 1.56 nan nan nan nan nan nan nan 2.75 2.67 1.31 1.04 0.79 0.83 1.04 0.99 0.88 0.90 0.92 1.06 1.14 1.15 1.18 0.98 0.99 1.10 1.09 1.19 1.23
0.72 0.47 0.60 0.51 0.51 0.59 0.63 0.73 0.88 0.71 nan nan nan nan nan nan nan nan nan nan nan nan 4.10 2.03 1.62 1.10 1.03 0.83 0.99 0.91 0.89 0.77 0.58 0.89 0.87 0.98 1.10 1.21 1.23 1.14 1.03 0.97 1.42
0.70 0.68 0.73 0.71 0.69 0.74 0.81 0.85 0.89 1.06 1.22 1.01 nan nan nan nan nan nan nan nan 3.47 nan 2.94 2.87 2.41 1.91 1.42 1.25 1.03 0.97 0.98 0.92 0.85 0.98 1.03 1.49 1.71 1.82 1.67 1.66 1.25 1.60 1.55
0.73 0.61 0.70 0.70 0.69 0.74 0.84 0.74 0.82 0.83 0.85 1.10 1.10 1.16 1.02 nan nan nan nan 2.24 2.93 2.57 2.57 2.65 2.17 1.94 1.50 1.61 1.50 1.71 1.44 1.48 1.40 1.95 2.00 2.18 2.00 2.10 2.09 1.51 1.17 0.96 1.05
0.79 0.83 0.79 1.04 0.94 0.84 0.62 0.78 0.72 0.77 0.87 1.02 1.07 0.94 1.70 1.92 2.59 2.69 2.24 3.12 3.07 2.69 2.32 2.56 2.58 2.81 2.84 2.61 2.54 2.32 2.30 2.41 2.16 2.27 2.24 2.17 2.05 2.22 1.41 2.08 1.80 1.43 1.70
1.38 1.13 0.88 0.96 1.24 1.28 1.32 1.06 0.84 1.20 1.05 1.23 0.94 0.92 nan 1.73 1.88 2.09 2.49 2.27 2.71 2.96 2.39 2.66 2.76 3.57 3.71 4.11 3.32 3.15 2.90 1.70 2.23 2.48 2.66 2.67 2.58 3.26 1.93 1.19 1.85 2.02 1.96
1.46 1.53 1.53 1.65 1.10 1.17 1.39 0.94 1.05 1.07 1.02 0.90 0.71 0.81 nan 1.06 1.34 1.42 1.60 2.20 2.79 2.83 3.25 3.86 3.76 4.13 3.57 3.24 2.88 2.66 2.17 2.66 2.96 2.74 2.16 2.30 2.77 2.38 2.38 1.57 1.68 1.43 2.01
1.23 1.04 1.13 1.13 1.10 1.43 1.28 1.55 1.35 1.31 1.18 1.34 1.16 1.17 1.37 1.83 1.57 1.51 2.40 2.71 2.07 1.90 2.22 2.37 2.20 2.17 2.00 2.37 2.06 2.00 2.16 2.52 2.65 3.62 2.31 2.45 2.37 2.82 2.53 2.20 1.93 2.14 2.04
1.09 1.12 1.10 1.55 1.34 1.06 1.33 1.45 1.23 1.53 1.33 1.47 2.48 1.98 1.13 1.55 2.34 1.59 1.71 2.13 1.73 3.15 2.14 2.30 1.81 1.75 1.97 3.22 4.23 4.14 4.51 4.77 4.49 4.05 3.59 2.27 2.26 2.01 1.93 2.32 1.80 1.73 1.40
1.41 1.18 1.21 1.11 1.87 1.47 1.38 1.73 1.20 1.74 2.07 1.61 2.03 1.45 1.48 1.36 1.49 2.29 2.10 1.68 1.91 1.76 1.49 1.46 1.54 1.59 1.62 1.74 2.56 3.40 3.63 1.44 2.61 1.57 3.08 2.03 2.51 2.58 2.44 2.05 1.90 1.56 1.34
1.13 1.24 1.30 1.39 1.35 1.51 1.61 1.59 1.68 1.32 1.75 1.87 1.72 1.74 1.46 1.46 1.48 1.84 1.69 1.71 1.34 1.40 1.47 1.64 1.63 1.41 1.31 1.50 1.61 1.67 1.36 1.19 2.74 1.33 2.41 1.88 2.22 2.02 1.98 2.02 1.85 1.75 1.40
SL_Ratio
nan nan nan nan nan nan nan nan nan nan nan nan nan nan nan nan nan nan nan nan nan nan nan nan nan nan nan nan nan nan nan nan 2.6 nan nan nan nan nan nan nan nan nan 2.2
nan nan nan nan nan nan nan nan nan nan nan nan nan nan nan nan nan nan nan nan nan nan nan nan nan nan 3.3 nan nan nan nan nan 2.5 3.5 nan nan 5.0 5.0 2.2 2.7 0.0 nan 2.9
nan nan nan nan nan nan nan nan nan nan nan nan nan nan nan nan nan nan nan nan nan nan nan nan nan 2.8 3.0 2.7 nan 5.0 2.8 2.4 2.5 3.5 3.8 3.5 3.4 3.0 3.2 3.5 3.5 3.7 0.0
nan nan nan nan nan nan nan nan nan nan nan nan nan nan nan nan nan 5.0 5.0 nan nan nan nan 3.3 3.3 2.9 2.8 2.7 2.8 2.7 2.8 3.2 3.2 3.4 3.7 3.7 3.8 3.9 3.7 4.5 5.0 4.2 4.1
nan nan nan nan nan nan 2.7 2.9 3.1 3.3 nan nan nan 3.8 0.0 nan nan 2.9 3.1 3.0 3.1 2.9 3.0 2.8 2.7 0.0 nan nan 3.0 3.2 3.3 3.4 3.6 3.8 4.1 4.4 4.7 5.3 5.5 4.8 5.1 4.5 4.9
nan 0.0 0.0 3.0 3.5 3.6 3.5 3.7 3.8 4.0 4.2 4.4 4.6 4.7 4.5 nan nan nan 2.9 3.0 3.0 2.9 3.2 3.2 2.9 3.1 2.9 nan nan nan nan 3.5 4.6 4.5 4.4 5.0 4.8 4.8 4.7 5.3 5.4 6.4 7.6
3.6 3.9 3.9 3.9 4.3 4.1 4.3 4.6 4.9 4.8 4.6 4.9 4.9 4.8 5.1 4.4 nan nan nan 3.1 3.3 3.0 3.1 3.3 3.1 3.1 3.3 3.0 nan nan nan nan nan 3.7 4.8 4.7 5.3 4.9 5.0 6.3 6.3 6.4 5.9
4.2 4.7 4.9 4.8 5.3 5.3 5.3 5.5 5.3 4.9 5.4 5.4 5.4 5.1 5.0 4.7 nan nan nan 3.1 3.5 3.2 3.2 3.3 3.5 3.6 3.5 3.4 3.3 3.9 3.7 3.6 3.5 3.7 4.0 4.1 4.1 4.3 4.6 5.0 5.7 6.1 5.8
4.4 4.6 4.9 5.2 5.8 5.8 6.5 6.0 5.9 6.1 6.2 6.3 5.8 6.0 5.8 5.2 nan nan 3.2 4.0 4.3 4.3 3.8 4.0 4.0 4.3 nan nan 4.9 5.9 5.6 5.0 nan nan nan nan nan nan nan 4.9 6.7 7.2 7.4
4.4 4.4 5.0 5.5 6.3 6.5 5.9 6.4 6.0 6.0 6.7 6.1 6.3 5.9 4.3 6.0 nan nan nan 3.9 5.4 5.2 5.2 4.5 3.1 4.1 nan nan 4.7 5.7 7.0 6.1 5.0 4.8 4.7 4.3 nan nan nan 5.5 6.0 7.6 7.7
5.6 6.2 6.5 6.3 6.7 6.1 6.0 5.8 6.1 6.7 6.8 6.7 6.9 6.3 6.2 5.2 5.4 nan nan 4.6 5.2 5.5 5.4 5.4 4.9 nan nan nan nan 5.3 5.7 4.9 5.3 5.5 5.5 5.5 5.3 5.4 5.3 5.5 5.9 6.2 7.0
6.6 7.3 7.2 7.0 6.6 6.5 6.9 6.6 6.5 6.7 7.1 7.4 7.5 6.9 6.2 6.2 nan nan nan nan nan 5.2 5.6 5.4 5.2 nan nan nan 3.6 nan nan 3.8 5.2 5.9 6.2 6.4 6.4 6.3 6.0 6.8 7.4 7.6 7.4
7.9 8.0 7.7 7.2 7.2 7.0 7.0 7.8 6.6 6.7 7.0 7.9 7.6 7.6 7.5 6.6 5.9 nan nan nan nan 5.0 4.9 5.4 nan nan nan nan nan nan 3.0 5.3 6.1 7.2 8.0 8.0 7.2 6.9 7.9 8.0 8.6 8.8 9.2
7.5 8.0 8.2 8.1 6.8 7.2 6.5 6.2 6.6 6.9 7.3 7.4 7.7 7.9 7.9 8.1 7.0 6.0 5.3 4.5 3.8 5.1 nan 5.0 nan 5.0 nan nan 4.9 5.3 6.2 6.5 7.0 7.4 8.3 8.1 7.7 8.2 8.4 8.1 8.5 8.4 8.1
8.1 9.1 7.4 7.0 6.9 7.5 7.6 7.0 7.5 7.0 7.0 7.6 7.3 7.9 8.8 8.9 7.9 6.3 6.2 5.8 5.3 5.5 5.5 6.8 7.1 7.2 7.4 7.3 7.4 7.4 7.2 7.1 7.6 7.6 8.5 8.7 8.5 8.4 8.5 8.6 8.6 8.4 8.5
9.1 8.5 7.7 7.4 7.4 7.8 8.0 8.2 nan nan nan nan nan 6.3 5.7 nan nan nan nan nan nan nan 6.5 7.8 9.1 8.9 9.4 9.0 9.0 9.6 9.6 8.5 9.4 9.1 9.1 8.9 9.0 9.0 9.0 8.7 8.5 8.6 9.0
8.1 8.5 8.1 8.1 8.6 8.5 8.4 8.5 9.2 8.4 nan nan nan nan nan nan nan nan nan nan nan nan 7.5 8.7 9.2 9.7 9.9 10.4 10.2 10.5 10.7 10.4 10.6 10.0 9.9 9.5 9.2 8.9 8.5 8.6 8.7 8.7 8.5
9.0 3.0 8.2 8.3 8.3 8.4 8.5 8.6 8.5 9.2 9.6 9.7 nan nan nan nan nan nan nan nan 7.7 nan 8.1 8.4 8.8 9.2 10.0 10.4 10.8 11.2 11.2 11.2 11.2 10.5 10.3 9.3 8.9 8.7 8.6 8.4 8.5 8.2 8.3
8.7 8.4 8.4 8.3 8.3 8.2 8.4 8.9 9.0 9.3 9.4 9.2 9.5 9.4 5.4 nan nan nan nan 8.5 8.3 8.7 8.7 8.7 9.2 9.6 10.2 9.9 10.1 9.7 10.2 10.2 10.2 9.4 9.3 8.9 8.8 8.6 8.4 8.5 8.8 6.6 7.0
9.3 4.1 6.9 8.4 8.8 9.2 9.5 9.6 10.2 10.3 10.5 10.0 9.9 10.0 9.2 8.2 8.5 8.5 8.7 8.2 8.4 8.7 9.0 9.0 9.0 8.8 8.8 8.9 8.9 9.1 9.2 9.1 9.4 9.3 9.3 9.1 8.9 8.5 9.4 8.3 8.3 8.9 8.2
10.2 10.6 3.0 10.9 10.3 10.1 10.1 10.7 11.2 10.5 10.6 10.1 10.2 9.9 nan 9.6 9.4 9.2 9.0 9.3 8.9 8.6 9.1 8.9 8.9 8.4 8.2 7.9 8.4 8.5 8.7 9.8 9.2 9.0 8.9 8.8 8.8 8.3 8.7 9.5 8.5 8.2 8.2
10.5 10.3 10.3 10.3 11.3 11.2 10.6 11.5 11.2 11.1 11.2 11.6 12.1 11.0 nan 10.7 10.4 10.2 10.1 9.3 8.9 9.0 8.8 8.5 8.5 8.3 8.5 8.6 8.9 8.9 9.4 8.9 8.6 8.9 9.6 9.4 8.9 9.0 8.5 9.0 8.8 8.9 8.2
11.4 12.2 11.9 11.9 11.9 4.6 11.3 10.7 11.2 11.1 11.5 10.9 11.0 11.4 11.1 9.9 10.3 10.6 9.4 9.4 10.0 10.3 9.9 9.7 9.7 9.8 9.8 9.4 9.6 9.6 9.6 9.3 9.2 8.4 9.7 9.4 9.6 9.0 8.8 8.8 8.8 8.5 8.3
12.2 12.0 11.9 10.8 11.3 12.2 11.4 11.2 11.9 4.2 11.5 11.1 9.9 10.2 11.5 10.8 9.9 10.9 10.6 10.1 10.6 9.1 10.0 9.8 10.3 10.2 9.7 8.6 8.0 8.1 7.9 7.7 8.0 8.2 8.5 9.8 9.9 9.2 9.9 8.9 9.1 8.5 9.2
11.5 12.1 11.9 12.1 10.6 11.5 11.8 11.2 12.5 11.3 10.8 11.3 10.5 11.5 11.6 11.8 11.1 9.8 10.0 10.4 10.1 10.2 10.5 10.5 10.3 10.1 9.9 9.8 9.1 8.5 7.8 3.0 7.3 3.0 8.9 10.0 9.7 9.7 9.8 9.7 9.5 9.8 9.5
12.1 12.0 12.0 11.9 12.0 11.5 11.2 11.3 11.2 12.0 11.2 10.9 11.1 11.0 11.3 11.3 11.0 10.2 10.4 10.4 10.9 10.7 10.5 10.2 10.2 10.4 10.4 10.1 10.0 4.1 3.0 3.0 8.4 3.0 9.4 10.1 10.0 10.6 10.7 10.6 10.7 10.2 10.3